Location: Peterborough
(44.3091°N, 78.3197°W)
Time: 13:08:29
(UTC-04:00)

Explorer 7 - Pass Details

Date: 24 March 2023
Orbit: 477 x 653 km, 50.3° (Epoch: 02 June)

Event Time Altitude Azimuth Distance (km) Brightness Sun altitude
Rises 23:10:04 0° 297° (WNW) 2,722 11.2 -35.7°
Reaches altitude 10° 23:12:23 10° 299° (WNW) 1,795 10.1 -36.0°
Enters shadow 23:12:31 11° 300° (WNW) 1,736 10.0 -36.0°
